Location: Ammerl�gen
(47.2167°N, 9.6000°E)
Time: 13:37:28
(UTC+00:00)

Iridium 4 Rocket - Pass Details

Date: 03 August 2021
Orbit: 583 x 905 km, 86.9° (Epoch: 25 September)

Event Time Altitude Azimuth Distance (km) Brightness Sun altitude
Rises 02:54:48 0° 338° (NNW) 3,464 7.1 -10.4°
Reaches altitude 10° 02:59:08 10° 307° (NW) 2,566 6.1 -9.9°
Maximum altitude 03:00:51 11° 290° (WNW) 2,477 5.8 -9.6°
Drops below altitude 10° 03:02:35 10° 272° (W) 2,582 5.8 -9.4°
Enters shadow 03:04:02 - 260° (W) 2,803 5.9 -9.2°
